Regional Weather Roundup
Issued by NWS

Home | Current Version | Previous Version | Graphics & Text | Print | Product List | Glossary On
Versions: 1 2 3 4 5 6 7 8 9 10 11 12 13 14 15 16 17 18 19 20 21 22 23 24 25 26 27 28 29 30 31 32 33 34 35 36 37 38 39 40 41 42 43 44 45 46 47 48 49 50
181
ASUS45 KSLC 231610
RWRUT

UTAH REGIONAL WEATHER ROUNDUP
NATIONAL WEATHER SERVICE SALT LAKE CITY UT
1000 AM MDT THU MAR 23 2017

UTZ001>011-023>025-231700-

NORTHERN UTAH

CITY           SKY/WX    TMP DP  RH WIND       PRES   REMARKS
BRIGHAM CITY     N/A     42  37  82 N16       29.79R
HILL AFB       LGT RAIN  39  37  93 NW13      29.78R FOG     WCI  32
LOGAN          LGT RAIN  41  37  86 NW8       29.77S
OGDEN          LGT RAIN  39  37  92 NW10      29.77R WCI  32
SALT LAKE CITY RAIN      39  38  96 S5        29.79R
WENDOVER       CLOUDY    45  27  49 NW25G36   29.86R
HEBER CITY     MIX PCPN  39  36  87 W5        29.73S

$$

UTZ011>015-024>027-231700-

CENTRAL/NORTHEAST UTAH

CITY           SKY/WX    TMP DP  RH WIND       PRES   REMARKS
PROVO AIRPORT  LGT RAIN  43  39  87 E9        29.78R
MOAB/CANYONLAN PTSUNNY   52  35  52 SW8       29.73F
DELTA          CLOUDY    34  34 100 CALM      29.83R
PRICE          CLOUDY    42  39  89 E5        29.74R
ROOSEVELT      DRIZZLE   43  37  81 W3        29.76S
VERNAL         CLOUDY    45  40  82 CALM      29.74R

$$

UTZ013>016-019>022-027-231700-

SOUTHERN UTAH

CITY           SKY/WX    TMP DP  RH WIND       PRES   REMARKS
BRYCE CANYON   CLOUDY    33  27  78 W5        29.83R WCI  29
CEDAR CITY     PTSUNNY   42  38  85 SW12      29.83R
MILFORD        CLOUDY   N/A N/A N/A NE7       29.83R
ST GEORGE      CLOUDY    51  37  58 CALM      29.87R
HANKSVILLE     CLOUDY    50  36  57 SW6       29.77S
BLANDING       CLOUDY    42  33  70 S9        29.90R

$$

REGIONAL REPORTS     COLORADO/ARIZONA

CITY           SKY/WX    TMP DP  RH WIND       PRES   REMARKS
CRAIG, CO      CLOUDY    51  31  46 SW20G35   29.75F
GRAND JUNCTION MOSUNNY   52  40  63 NE6       29.76S
RIFLE, CO      MOSUNNY   56  35  45 W21G29    29.76S
MONTROSE, CO   SUNNY     55  29  36 VRB3      29.77F
CORTEZ, CO     PTSUNNY   46  36  68 W7        29.81F
COLORADO CITY  CLOUDY    45  37  76 SW5       29.90R
PAGE, AZ       CLOUDY    48  32  53 W5        29.82S
GRAND CANYON   CLOUDY    35  33  92 SW13      29.88S WCI  26
KINGMAN, AZ    MOSUNNY   47  29  49 S9        29.91R
FLAGSTAFF, AZ  CLOUDY    32  30  92 W6        29.89R WCI  26

$$

REGIONAL REPORTS    NEVADA/IDAHO/WYOMING

CITY           SKY/WX    TMP DP  RH WIND       PRES   REMARKS
LAS VEGAS, NV  PTSUNNY   58  32  37 NW16G25   29.87R
ELY, NY        FLURRIES  34  33  96 N9        29.90R WCI  27
ELKO, NV       MOSUNNY   40  31  70 N5        29.98R
POCATELLO, ID  CLOUDY    39  36  89 SW20      29.87R WCI  29
BURLEY, ID     CLOUDY    37  31  78 W20G32    29.89R WCI  27
FORT BRIDGER,  FOG       36  36 100 W5        29.74R VSB 1/4 WCI  32
EVANSTON, WY   SNOW      32  29  88 N10       29.73R VSB 1/2 WCI  24
ROCK SPRINGS,  CLOUDY    40  36  86 SW16      29.70S WCI  31
KEMMERER, WY   LGT SNOW  34  34 100 N8        29.71S WCI  27

$$




USA.gov is the U.S. government's official web portal to all federal, state and local government web resources and services.